Simultaneous Nadir Overpasses (SNOs) Predictions

Prediction of SNOs between GOES-16 and AQUA Satellite Orbit:

Table of predicted SNOs for the next 14.0 days since TLE Epoch: 8/19/2023
Index Date Time (GOES-16) GOES-16 Lat,Lon AQUA Lat,Lon Distance(km) Time Diff (sec)
1 08/19/2023 07:03:40 0.04, -75.21 0.48, -77.39 247.85 80
2 08/21/2023 06:46:36 0.04, -75.22 -0.26, -73.88 152.72 80
3 08/21/2023 19:07:26 -0.04, -75.22 -0.80, -78.92 420.27 80
4 08/23/2023 18:53:01 -0.04, -75.24 -0.08, -75.40 19.19 80
5 08/25/2023 18:41:16 -0.03, -75.25 0.67, -71.88 382.07 80
6 08/26/2023 07:01:57 0.03, -75.25 0.39, -76.89 187.75 80
7 08/28/2023 06:44:52 0.00, -75.26 -0.40, -73.38 213.56 80
8 08/28/2023 19:05:40 0.01, -75.27 -0.68, -78.42 359.18 80
9 08/30/2023 18:53:54 0.01, -75.29 0.11, -74.91 43.97 80
10 09/01/2023 18:39:28 0.00, -75.32 0.86, -71.38 448.30 80
